Regional Weather Roundup
Issued by NWS

Home | Current Version | Previous Version | Graphics & Text | Print | Product List | Glossary On
Versions: 1 2 3 4 5 6 7 8 9 10 11 12 13 14 15 16 17 18 19 20 21 22 23 24 25 26 27 28 29 30 31 32 33 34 35 36 37 38 39 40 41 42 43 44 45 46 47 48 49 50
000
ASUS43 KMPX 171510
RWRMN
WEATHER ROUNDUP FOR MINNESOTA
NATIONAL WEATHER SERVICE TWIN CITIES/CHANHASSEN MN
900 AM CST FRI NOV 17 2017


NOTE: "FAIR" INDICATES FEW OR NO CLOUDS BELOW 12,000 FEET WITH NO
SIGNIFICANT WEATHER AND/OR OBSTRUCTIONS TO VISIBILITY. N/A MEANS
CURRENT SKY AND/OR WEATHER CONDITIONS ARE NOT AVAILABLE.

MNZ060>063-068>070-171600-
   Twin Cities Metro

CITY           SKY/WX    TMP DP  RH WIND       PRES   REMARKS
TWIN CITIES    DRIZZLE   36  35  96 S9        29.71F FOG
ST PAUL        LGT RAIN  36  35  96 SE10      29.73F FOG
CRYSTAL        CLOUDY    35  31  85 SE10      29.69F FOG     WCI  27
BLAINE         DRIZZLE   37  37 100 SE10      29.70F
LAKEVILLE      DRIZZLE   34  34 100 S12       29.70S WCI  25
EDEN PRAIRIE   CLOUDY    37  34  89 S9        29.69F FOG
SOUTH ST PAUL  LGT RAIN  36  36 100 S6        29.72S
LAKE ELMO      MIX PCPN  34  34 100 S7        29.73F WCI  28
$$
MNZ001>005-007-008-013>017-022>024-027-028-171600-
   Northwest Minnesota

CITY           SKY/WX    TMP DP  RH WIND       PRES   REMARKS
BEMIDJI        CLOUDY    32  29  90 S10       29.60F WCI  24
HALLOCK        CLOUDY    25  21  86 NW10      29.64R WCI  15
ROSEAU         CLOUDY    34  28  80 SW8       29.60R WCI  27
WARROAD        CLOUDY    34  28  80 SW9       29.59S WCI  26
THIEF RVR FALL CLOUDY    32  28  85 SW9       29.64R WCI  24
CROOKSTON      CLOUDY    32  28  86 SW6       29.65R WCI  26
FOSSTON        CLOUDY    30  27  86 S10       29.59F WCI  21
DETROIT LAKES  LGT RAIN  32  32 100 SE12      29.61F WCI  23
MOORHEAD       CLOUDY    34  28  80 CALM      29.63F
PARK RAPIDS    MIX PCPN  33  28  81 SE3       29.65F
MAHNOMEN       CLOUDY    33  29  86 S9        29.59F WCI  25
$$
MNZ006-009>011-018-025>026-171600-
   North Central Minnesota

CITY           SKY/WX    TMP DP  RH WIND       PRES   REMARKS
BAUDETTE       CLOUDY    33  28  81 S9        29.60S WCI  25
FLAG ISLAND    CLOUDY    34  28  80 S9        29.57F WCI  26
INTL FALLS     CLOUDY    33  27  78 SW9       29.65R WCI  25
WASKISH        CLOUDY    34  28  80 S6        29.61F WCI  29
BIG FORK       LGT SNOW  34  30  86 S6        29.66S VSB 1   WCI  29
LONGVILLE      CLOUDY    34  28  80 CALM      29.68R
GRAND RAPIDS   CLOUDY    32  28  85 SW6       29.70R WCI  26
CRANE LAKE     LGT SNOW  30  28  93 S6        29.69R WCI  24
ORR            LGT SNOW  30  27  86 S7        29.65R VSB 1   WCI  23
COOK           LGT SNOW  30  28  93 SW10      29.67R WCI  21
WALKER         CLOUDY    32  28  84 S6        29.66F WCI  27
$$
MNZ012-019>021-037-171600-
   Northeast Minnesota

CITY           SKY/WX    TMP DP  RH WIND       PRES   REMARKS
DULUTH         CLOUDY    30  30 100 S8        29.69F FOG     WCI  22
ELY            CLOUDY    30  27  86 S9        29.67F WCI  22
HIBBING        CLOUDY    31  26  82 S6        29.67F WCI  25
EVELETH        CLOUDY    32  27  80 S9        29.69F WCI  24
DULUTH HARBOR  CLOUDY    36  30  80 S5        29.74F
TWO HARBORS    CLOUDY    36  30  80 S3        29.70F HAZE
SILVER BAY     CLOUDY    34  32  93 S6        29.70S FOG     WCI  29
GRAND MARAIS     N/A     38  33  82 SW14      29.76F
G MARAIS ARPRT LGT SNOW  30  27  86 S7        29.71F WCI  23
$$
MNZ029>031-032-039>041-046>048-054>057-064-171600-
   West Central Minnesota

CITY           SKY/WX    TMP DP  RH WIND       PRES   REMARKS
FERGUS FALLS   CLOUDY    34  28  80 CALM      29.68R
WHEATON        CLOUDY    34  28  80 NW5       29.67R WCI  30
MORRIS         CLOUDY    36  30  80 SE7       29.62R
ALEXANDRIA     CLOUDY    35  30  82 CALM      29.64R
ELBOW LAKE     FAIR      33  30  89 SE3       29.64R FOG
WADENA         CLOUDY    32  28  86 SE3       29.64F
GLENWOOD       CLOUDY    36  30  80 S5G10     29.62S
APPLETON       CLOUDY    37  30  75 CALM      29.62R
BENSON         CLOUDY    36  30  80 S13       29.60F
ORTONVILLE     CLOUDY    34  28  80 MISG      29.62R
MADISON        CLOUDY    37  34  87 CALM      29.61F
WILLMAR        FAIR      37  34  87 SE6       29.64S
$$
MNZ033>034-036-042>043-049>051-058-059-171600-
   Central Minnesota

CITY           SKY/WX    TMP DP  RH WIND       PRES   REMARKS
ST CLOUD       CLOUDY    36  31  82 SE9       29.66F
SAUK CENTRE    FAIR      33  30  88 SE10      29.62F WCI  25
PAYNESVILLE    CLOUDY    36  32  87 SE5       29.65F
AITKIN         CLOUDY    32  28  86 S6        29.67F WCI  26
PINE RIVER     CLOUDY    32  27  80 CALM      29.71R
BRAINERD       CLOUDY    36  29  75 SE6       29.65F
STAPLES        CLOUDY    34  28  80 CALM      29.66R
LONG PRAIRIE   FAIR      32  30  93 E15       29.61F WCI  22
LITTLE FALLS   CLOUDY    34  27  75 CALM      29.67F
LITCHFIELD     CLOUDY    37  34  87 SE6       29.64F
BUFFALO        CLOUDY    37  32  80 SE7       29.68F
MAPLE LAKE     CLOUDY    38  33  82 SE6       29.67F
HUTCHINSON     CLOUDY    38  33  82 SE7       29.66F
$$
MNZ037-044-045-052-053-171600-
   East Central Minnesota

CITY           SKY/WX    TMP DP  RH WIND       PRES   REMARKS
PRINCETON      CLOUDY    37  32  81 SE8       29.68F
MORA           CLOUDY    34  30  86 S6        29.70F WCI  29
CAMBRIDGE      CLOUDY    36  36 100 SE9       29.69F FOG
RUSH CITY      DRIZZLE   33  32  96 SE9       29.71S WCI  25
MOOSE LAKE     CLOUDY    32  30  93 S3        29.69S
HINCKLEY       CLOUDY    34  32  93 S6        29.71F FOG     WCI  29
CLOQUET        CLOUDY    32  28  86 S3        29.71R
MCGREGOR       CLOUDY    34  30  86 S5        29.70S WCI  30
$$
MNZ071>073-080-081-089-090-097-098-171600-
   Southwest Minnesota

CITY           SKY/WX    TMP DP  RH WIND       PRES   REMARKS
MONTEVIDEO     CLOUDY    34  32  93 CALM      29.62F
GRANITE FALLS  CLOUDY    37  33  84 CALM      29.64S
CANBY          CLOUDY    35  32  87 S5        29.62F WCI  31
MARSHALL       CLOUDY    38  33  82 N6        29.61R
REDWOOD FALLS  CLOUDY    38  31  76 SE10      29.61F
OLIVIA         CLOUDY    36  32  87 SE8       29.62S
PIPESTONE      CLOUDY    43  37  81 SW8       29.57F
WINDOM           N/A     43  28  56 S12       29.61F
WORTHINGTON    CLOUDY    42  36  79 SE9       29.59F
JACKSON        CLOUDY    41  34  75 S9G17     29.63F
SLAYTON        CLOUDY    43  39  85 S8        29.60S
$$
MNZ065>067-074>077-082>085-091>093-171600-
   South Central Minnesota

CITY           SKY/WX    TMP DP  RH WIND       PRES   REMARKS
MANKATO        CLOUDY    37  33  85 S16       29.67F
NEW ULM        CLOUDY    39  32  75 SE12G18   29.64F
ST JAMES       CLOUDY    39  34  81 SE14      29.65F
FAIRMONT       CLOUDY    39  34  82 S16       29.66F
GLENCOE        CLOUDY    39  34  82 SE10      29.65F
FARIBAULT      DRIZZLE   36  34  93 SE16G23   29.69F
OWATONNA       CLOUDY    36  34  93 SE22G30   29.68F FOG
WASECA         CLOUDY    36  34  93 SE14G20   29.70F FOG
ALBERT LEA     CLOUDY    34  32  93 S16       29.70F FOG     WCI  23
$$
MNZ078>079-086>088-094>096-171600-
   Southeast Minnesota

CITY           SKY/WX    TMP DP  RH WIND       PRES   REMARKS
ROCHESTER      CLOUDY    34  32  92 S21       29.74S FOG     WCI  22
RED WING       CLOUDY    37  28  70 SE9G16    29.74F
STANTON        CLOUDY    38  32  81 S20G28    29.69F HAZE
DODGE CENTER   CLOUDY    34  30  86 S21       29.71F FOG     WCI  22
WINONA         CLOUDY    37  32  81 SE8       29.81S
AUSTIN         CLOUDY    34  30  86 S10G18    29.73F FOG     WCI  26
PRESTON        CLOUDY    34  30  87 S15G22    29.77F FOG     WCI  24
$$
ABBREVIATIONS USED IN REMARKS
   TC - TEMPERATURES IN CELSIUS
  WCI - WIND CHILL INDEX
   HX - HEAT INDEX
  VSB - VISIBILITY
$$




USA.gov is the U.S. government's official web portal to all federal, state and local government web resources and services.